When you browse on this site, cookies collect data to enhance your experience and personalize the content and advertising you see.
Visit our Privacy Policy to learn more. By continuing to use the site, you agree to this use of cookies and data.
  • In Hungary
  • List of Countries
  • For 7 days
  • Water Temperature
  • Satellite Maps
  • Weather Map
  • News
  • Weather Widgets
  • user-avatar
    Login

    Hourly Weather Baicoi

    Today, 21 March, Thursday

    Time Temperature Precipitation Wind Pressure Humidity
    00:00 +8°C° 0.1 mm 2 mps 746 mmHg 65%
    01:00 +8°C° 0.1 mm 2 mps 746 mmHg 65%
    02:00 +8°C° 0 mm 2 mps 747 mmHg 65%
    03:00 +7°C° 0.1 mm 2 mps 747 mmHg 65%
    04:00 +7°C° 0.1 mm 2 mps 747 mmHg 65%
    05:00 +8°C° 0.1 mm 1 mps 747 mmHg 64%
    06:00 +8°C° 0 mm 1 mps 747 mmHg 63%
    07:00 +8°C° 0 mm 1 mps 747 mmHg 62%
    08:00 +8°C° 0 mm 1 mps 747 mmHg 61%
    09:00 +9°C° 0 mm 1 mps 747 mmHg 58%
    10:00 +10°C° 0 mm 1 mps 747 mmHg 55%
    11:00 +9°C° 0 mm 2 mps 747 mmHg 53%
    12:00 +10°C° 0 mm 2 mps 747 mmHg 51%
    13:00 +12°C° 0 mm 2 mps 746 mmHg 50%
    14:00 +13°C° 0 mm 2 mps 746 mmHg 49%
    15:00 +13°C° 0 mm 2 mps 746 mmHg 49%
    16:00 +13°C° 0 mm 2 mps 745 mmHg 50%
    17:00 +13°C° 0 mm 2 mps 745 mmHg 50%
    18:00 +12°C° 0 mm 2 mps 745 mmHg 56%
    19:00 +10°C° 0 mm 2 mps 745 mmHg 62%
    20:00 +9°C° 0 mm 2 mps 746 mmHg 68%
    21:00 +8°C° 0 mm 2 mps 746 mmHg 66%
    22:00 +8°C° 0 mm 2 mps 746 mmHg 65%
    23:00 +7°C° 0 mm 2 mps 746 mmHg 64%

    Tomorrow, 22 March, Friday

    Time Temperature Precipitation Wind Pressure Humidity
    00:00 +7°C° 0 mm 2 mps 746 mmHg 61%
    01:00 +7°C° 0 mm 2 mps 746 mmHg 59%
    02:00 +7°C° 0 mm 2 mps 746 mmHg 56%
    03:00 +6°C° 0 mm 2 mps 746 mmHg 57%
    04:00 +6°C° 0 mm 2 mps 746 mmHg 57%
    05:00 +6°C° 0 mm 2 mps 745 mmHg 58%
    06:00 +8°C° 0 mm 1 mps 746 mmHg 56%
    07:00 +9°C° 0 mm 1 mps 746 mmHg 55%
    08:00 +9°C° 0 mm 1 mps 746 mmHg 53%
    09:00 +11°C° 0 mm 1 mps 746 mmHg 49%
    10:00 +13°C° 0 mm 1 mps 745 mmHg 44%
    11:00 +14°C° 0 mm 1 mps 745 mmHg 40%
    12:00 +15°C° 0 mm 1 mps 745 mmHg 38%
    13:00 +16°C° 0 mm 1 mps 744 mmHg 36%
    14:00 +18°C° 0 mm 1 mps 744 mmHg 35%
    15:00 +18°C° 0 mm 1 mps 744 mmHg 35%
    16:00 +18°C° 0 mm 1 mps 743 mmHg 36%
    17:00 +18°C° 0 mm 1 mps 743 mmHg 37%
    18:00 +15°C° 0 mm 1 mps 743 mmHg 43%
    19:00 +14°C° 0 mm 1 mps 743 mmHg 49%
    20:00 +12°C° 0 mm 1 mps 743 mmHg 54%
    21:00 +12°C° 0 mm 2 mps 743 mmHg 56%
    22:00 +10°C° 0 mm 2 mps 744 mmHg 57%
    23:00 +10°C° 0 mm 2 mps 744 mmHg 59%

    Day after tomorrow, 23 March, Saturday

    Time Temperature Precipitation Wind Pressure Humidity
    00:00 +10°C° 0 mm 2 mps 744 mmHg 61%
    01:00 +10°C° 0 mm 1 mps 744 mmHg 64%
    02:00 +9°C° 0 mm 1 mps 743 mmHg 66%
    03:00 +9°C° 0 mm 1 mps 743 mmHg 70%
    04:00 +8°C° 0 mm 1 mps 743 mmHg 73%
    05:00 +8°C° 0 mm 1 mps 743 mmHg 76%
    06:00 +9°C° 0 mm 1 mps 743 mmHg 74%
    07:00 +9°C° 0 mm 1 mps 743 mmHg 73%
    08:00 +9°C° 0 mm 2 mps 743 mmHg 72%
    09:00 +10°C° 0 mm 2 mps 743 mmHg 66%
    10:00 +12°C° 0 mm 3 mps 743 mmHg 60%
    11:00 +13°C° 0 mm 3 mps 743 mmHg 53%
    12:00 +14°C° 0 mm 3 mps 742 mmHg 48%
    13:00 +16°C° 0 mm 3 mps 742 mmHg 43%
    14:00 +17°C° 0 mm 3 mps 741 mmHg 38%
    15:00 +17°C° 0 mm 2 mps 741 mmHg 37%
    16:00 +17°C° 0 mm 2 mps 741 mmHg 37%
    17:00 +17°C° 0 mm 2 mps 740 mmHg 36%
    18:00 +15°C° 0 mm 2 mps 741 mmHg 45%
    19:00 +13°C° 0 mm 2 mps 741 mmHg 55%
    20:00 +10°C° 0 mm 2 mps 741 mmHg 64%
    21:00 +10°C° 0 mm 2 mps 741 mmHg 63%
    22:00 +9°C° 0 mm 2 mps 742 mmHg 61%
    23:00 +9°C° 0 mm 1 mps 742 mmHg 59%

    24 March, Sunday

    Time Temperature Precipitation Wind Pressure Humidity
    00:00 +8°C° 0 mm 1 mps 742 mmHg 57%
    01:00 +8°C° 0 mm 1 mps 742 mmHg 55%
    02:00 +7°C° 0 mm 1 mps 742 mmHg 53%
    03:00 +7°C° 0 mm 1 mps 742 mmHg 53%
    04:00 +6°C° 0 mm 1 mps 742 mmHg 53%
    05:00 +6°C° 0 mm 1 mps 742 mmHg 53%
    06:00 +7°C° 0 mm 1 mps 742 mmHg 50%
    07:00 +7°C° 0 mm 1 mps 742 mmHg 48%
    08:00 +8°C° 0 mm 1 mps 742 mmHg 45%
    09:00 +9°C° 0 mm 2 mps 742 mmHg 42%
    10:00 +12°C° 0 mm 2 mps 742 mmHg 38%
    11:00 +12°C° 0 mm 3 mps 742 mmHg 35%
    12:00 +13°C° 0 mm 3 mps 741 mmHg 34%
    13:00 +16°C° 0 mm 3 mps 741 mmHg 32%
    14:00 +17°C° 0 mm 4 mps 740 mmHg 31%
    15:00 +17°C° 0 mm 4 mps 740 mmHg 32%
    16:00 +16°C° 0 mm 3 mps 739 mmHg 33%
    17:00 +16°C° 0 mm 3 mps 739 mmHg 35%
    18:00 +14°C° 0 mm 3 mps 739 mmHg 40%
    19:00 +13°C° 0 mm 2 mps 739 mmHg 45%
    20:00 +10°C° 0 mm 2 mps 739 mmHg 50%
    21:00 +10°C° 0 mm 2 mps 739 mmHg 51%
    22:00 +11°C° 0 mm 1 mps 739 mmHg 51%
    23:00 +10°C° 0 mm 1 mps 739 mmHg 52%

    25 March, Monday

    Time Temperature Precipitation Wind Pressure Humidity
    00:00 +10°C° 0 mm 1 mps 738 mmHg 53%
    01:00 +9°C° 0 mm 1 mps 738 mmHg 55%
    02:00 +9°C° 0 mm 1 mps 738 mmHg 56%
    03:00 +9°C° 0 mm 1 mps 737 mmHg 58%
    04:00 +8°C° 0 mm 1 mps 737 mmHg 59%
    05:00 +7°C° 0 mm 0 mps 737 mmHg 61%
    06:00 +8°C° 0 mm 0 mps 736 mmHg 59%
    07:00 +9°C° 0 mm 0 mps 736 mmHg 57%
    08:00 +9°C° 0 mm 0 mps 736 mmHg 55%
    09:00 +12°C° 0 mm 1 mps 736 mmHg 51%
    10:00 +14°C° 0 mm 2 mps 735 mmHg 46%
    11:00 +16°C° 0 mm 3 mps 735 mmHg 42%
    12:00 +17°C° 0 mm 3 mps 734 mmHg 40%
    13:00 +18°C° 0 mm 4 mps 733 mmHg 38%
    14:00 +19°C° 0 mm 4 mps 733 mmHg 36%
    15:00 +19°C° 0 mm 4 mps 732 mmHg 36%
    16:00 +19°C° 0 mm 4 mps 732 mmHg 36%
    17:00 +18°C° 0 mm 3 mps 731 mmHg 36%
    18:00 +17°C° 0 mm 3 mps 731 mmHg 40%
    19:00 +15°C° 0 mm 2 mps 731 mmHg 44%
    20:00 +14°C° 0 mm 2 mps 731 mmHg 49%
    21:00 +13°C° 0 mm 2 mps 731 mmHg 52%
    22:00 +12°C° 0 mm 2 mps 731 mmHg 56%
    23:00 +12°C° 0 mm 2 mps 731 mmHg 59%

    26 March, Tuesday

    Time Temperature Precipitation Wind Pressure Humidity
    00:00 +12°C° 0 mm 2 mps 731 mmHg 61%
    01:00 +10°C° 0 mm 2 mps 731 mmHg 63%
    02:00 +11°C° 0 mm 1 mps 731 mmHg 64%
    03:00 +11°C° 0 mm 1 mps 731 mmHg 67%
    04:00 +10°C° 0 mm 1 mps 731 mmHg 69%
    05:00 +9°C° 0 mm 1 mps 731 mmHg 71%
    06:00 +8°C° 0 mm 2 mps 731 mmHg 72%
    07:00 +8°C° 0 mm 2 mps 731 mmHg 72%
    08:00 +8°C° 0 mm 2 mps 731 mmHg 73%
    09:00 +8°C° 0.4 mm 2 mps 731 mmHg 74%
    10:00 +8°C° 0.4 mm 2 mps 731 mmHg 75%
    11:00 +8°C° 0.4 mm 2 mps 731 mmHg 76%
    12:00 +8°C° 0.4 mm 2 mps 731 mmHg 73%
    13:00 +8°C° 0.4 mm 2 mps 731 mmHg 69%
    14:00 +9°C° 0.4 mm 2 mps 730 mmHg 66%
    15:00 +9°C° 0.2 mm 3 mps 730 mmHg 62%
    16:00 +9°C° 0.2 mm 3 mps 730 mmHg 58%
    17:00 +9°C° 0.2 mm 3 mps 731 mmHg 54%
    18:00 +7°C° 0 mm 3 mps 731 mmHg 54%
    19:00 +6°C° 0 mm 2 mps 732 mmHg 53%
    20:00 +5°C° 0 mm 2 mps 732 mmHg 53%
    21:00 +4°C° 0 mm 2 mps 733 mmHg 55%
    22:00 +3°C° 0 mm 3 mps 733 mmHg 57%
    23:00 +2°C° 0 mm 3 mps 733 mmHg 59%
    Show more